�������l�o���
Date,Time,MP-1(��Sv/h),MP-2(��Sv/h),MP-3(��Sv/h),MP-4(��Sv/h),MP-5(��Sv/h),MP-6(��Sv/h),MP-7(��Sv/h),MP-8(��Sv/h),����,����(m/s),���J
2017/04/22,00:00,1.018,1.643,1.100,1.970,1.342,0.542,0.995,0.921,�k,3.0,��
2017/04/22,00:10,1.018,1.646,1.104,1.969,1.344,0.542,0.994,0.921,�k,4.5,��
2017/04/22,00:20,1.020,1.643,1.103,1.972,1.345,0.543,0.995,0.921,�k,4.3,��
2017/04/22,00:30,1.017,1.642,1.100,1.969,1.344,0.543,0.995,0.921,�k�k��,5.2,��
2017/04/22,00:40,1.018,1.644,1.103,1.968,1.343,0.544,0.995,0.920,�k,5.6,��
2017/04/22,00:50,1.018,1.641,1.101,1.969,1.344,0.542,0.996,0.921,�k,4.6,��
2017/04/22,01:00,1.021,1.642,1.102,1.970,1.344,0.543,0.995,0.922,�k�k��,5.3,��
2017/04/22,01:10,1.019,1.642,1.101,1.970,1.343,0.544,0.994,0.924,�k�k��,4.9,��
2017/04/22,01:20,1.018,1.643,1.100,1.969,1.344,0.544,0.995,0.923,�k�k��,5.9,��
2017/04/22,01:30,1.019,1.643,1.103,1.968,1.343,0.544,0.993,0.923,�k��,6.4,��
2017/04/22,01:40,1.020,1.641,1.101,1.972,1.346,0.544,0.995,0.920,�k��,6.0,��
2017/04/22,01:50,1.019,1.642,1.105,1.970,1.341,0.545,0.996,0.921,�k��,4.3,��
2017/04/22,02:00,1.019,1.643,1.103,1.968,1.343,0.543,0.997,0.920,�k��,3.9,��
2017/04/22,02:10,1.016,1.642,1.104,1.969,1.345,0.546,0.994,0.919,�k��,3.8,��
2017/04/22,02:20,1.018,1.642,1.100,1.969,1.345,0.544,0.994,0.922,�k�k��,3.6,��
2017/04/22,02:30,1.019,1.642,1.101,1.969,1.343,0.542,0.991,0.920,�k�k��,4.6,��
2017/04/22,02:40,1.018,1.643,1.103,1.970,1.343,0.544,0.993,0.920,�k�k��,3.9,��
2017/04/22,02:50,1.017,1.645,1.102,1.970,1.340,0.543,0.994,0.921,�k�k��,4.3,��
2017/04/22,03:00,1.017,1.639,1.102,1.971,1.345,0.543,0.994,0.920,�k��,5.1,��
2017/04/22,03:10,1.018,1.641,1.103,1.968,1.343,0.543,0.992,0.922,�k��,5.4,��
2017/04/22,03:20,1.021,1.642,1.102,1.966,1.341,0.544,0.995,0.921,�k��,2.0,��
2017/04/22,03:30,1.015,1.642,1.102,1.971,1.345,0.544,0.995,0.920,�k��,2.5,��
2017/04/22,03:40,1.017,1.642,1.101,1.968,1.342,0.544,0.995,0.922,�k��,2.3,��
2017/04/22,03:50,1.020,1.644,1.100,1.970,1.343,0.544,0.995,0.919,�k��,3.3,��
2017/04/22,04:00,1.018,1.641,1.100,1.969,1.344,0.545,0.995,0.920,�k��,4.6,��
2017/04/22,04:10,1.017,1.640,1.103,1.966,1.343,0.544,0.995,0.923,�k,3.7,��
2017/04/22,04:20,1.016,1.640,1.101,1.968,1.343,0.543,0.996,0.920,�k,4.4,��
2017/04/22,04:30,1.019,1.641,1.102,1.968,1.345,0.544,0.995,0.921,�k�k��,3.8,��
2017/04/22,04:40,1.018,1.639,1.102,1.968,1.343,0.544,0.996,0.919,�k�k��,4.0,��
2017/04/22,04:50,1.016,1.639,1.101,1.966,1.343,0.544,0.994,0.919,�k�k��,4.1,��
2017/04/22,05:00,1.016,1.641,1.101,1.968,1.343,0.544,0.995,0.922,�k�k��,2.8,��
2017/04/22,05:10,1.018,1.640,1.102,1.966,1.343,0.544,0.995,0.920,�k�k��,2.6,��
2017/04/22,05:20,1.018,1.637,1.100,1.964,1.341,0.543,0.995,0.921,�k,3.7,��
2017/04/22,05:30,1.017,1.640,1.103,1.969,1.341,0.543,0.993,0.920,�k,3.7,��
2017/04/22,05:40,1.017,1.641,1.101,1.968,1.342,0.541,0.994,0.922,�k,3.4,��
2017/04/22,05:50,1.017,1.640,1.102,1.968,1.344,0.542,0.994,0.921,�k,3.0,��
2017/04/22,06:00,1.016,1.640,1.101,1.967,1.343,0.541,0.992,0.919,�k,2.3,��
2017/04/22,06:10,1.016,1.642,1.103,1.969,1.344,0.542,0.995,0.920,���k��,1.2,��
2017/04/22,06:20,1.018,1.642,1.102,1.967,1.338,0.542,0.995,0.921,�k��,2.0,��
2017/04/22,06:30,1.018,1.641,1.102,1.968,1.344,0.542,0.994,0.919,�k��,1.9,��
2017/04/22,06:40,1.016,1.639,1.103,1.968,1.342,0.543,0.994,0.921,�k�k��,2.3,��
2017/04/22,06:50,1.019,1.643,1.102,1.967,1.342,0.543,0.996,0.922,�k�k��,1.4,��
2017/04/22,07:00,1.017,1.644,1.103,1.969,1.345,0.543,0.993,0.920,�k��,1.7,��
2017/04/22,07:10,1.018,1.641,1.103,1.971,1.343,0.542,0.994,0.922,�k��,1.9,��
2017/04/22,07:20,1.018,1.643,1.104,1.969,1.345,0.545,0.994,0.920,�k��,1.4,��
2017/04/22,07:30,1.019,1.642,1.103,1.969,1.343,0.544,0.995,0.921,�k��,1.4,��
2017/04/22,07:40,1.020,1.641,1.102,1.969,1.347,0.543,0.997,0.921,�k�k��,1.4,��
2017/04/22,07:50,1.021,1.643,1.101,1.970,1.345,0.543,0.995,0.921,�k��,1.1,��
2017/04/22,08:00,1.019,1.643,1.104,1.970,1.347,0.543,0.995,0.922,���k��,0.9,��
2017/04/22,08:10,1.021,1.644,1.101,1.972,1.347,0.543,0.994,0.923,���k��,1.5,��
2017/04/22,08:20,1.018,1.645,1.104,1.969,1.347,0.544,0.994,0.922,���k��,1.2,��
2017/04/22,08:30,1.019,1.644,1.103,1.972,1.349,0.543,0.995,0.923,�k��,0.6,��
2017/04/22,08:40,1.021,1.646,1.105,1.974,1.348,0.544,0.995,0.922,���쓌,1.9,��
2017/04/22,08:50,1.020,1.647,1.104,1.968,1.349,0.544,0.995,0.922,���k��,1.4,��
2017/04/22,09:00,1.021,1.646,1.105,1.975,1.348,0.545,0.994,0.922,���k��,2.8,��
2017/04/22,09:10,1.022,1.644,1.106,1.971,1.346,0.543,0.993,0.920,���k��,2.6,��
2017/04/22,09:20,1.021,1.643,1.105,1.971,1.347,0.543,0.993,0.919,��,2.5,��
2017/04/22,09:30,1.020,1.645,1.104,1.971,1.345,0.542,0.994,0.920,���쓌,3.1,��
2017/04/22,09:40,1.022,1.642,1.105,1.974,1.350,0.542,0.994,0.922,��,3.3,��
2017/04/22,09:50,1.021,1.643,1.106,1.974,1.349,0.541,0.996,0.919,��,3.1,��
2017/04/22,10:00,1.020,1.645,1.107,1.972,1.346,0.543,0.994,0.921,��,2.5,��
2017/04/22,10:10,1.019,1.639,1.105,1.976,1.350,0.540,0.996,0.918,��,3.1,��
2017/04/22,10:20,1.021,1.644,1.105,1.975,1.350,0.543,0.994,0.918,���k��,4.3,��
2017/04/22,10:30,1.019,1.645,1.105,1.971,1.350,0.542,0.995,0.920,���k��,3.6,��
2017/04/22,10:40,1.020,1.648,1.106,1.975,1.349,0.541,0.994,0.921,���k��,3.2,��
2017/04/22,10:50,1.020,1.646,1.107,1.972,1.349,0.542,0.994,0.918,���k��,3.8,��
2017/04/22,11:00,1.023,1.647,1.105,1.976,1.349,0.541,0.995,0.918,���k��,3.1,��
2017/04/22,11:10,1.020,1.648,1.108,1.975,1.354,0.541,0.994,0.920,���k��,3.2,��
2017/04/22,11:20,1.022,1.650,1.105,1.979,1.352,0.543,0.995,0.920,���k��,3.6,��
2017/04/22,11:30,1.020,1.647,1.104,1.975,1.352,0.542,0.994,0.920,��,3.0,��
2017/04/22,11:40,1.022,1.652,1.104,1.975,1.350,0.543,0.997,0.920,��,3.5,��
2017/04/22,11:50,1.023,1.651,1.104,1.973,1.350,0.542,0.995,0.920,��,3.9,��
2017/04/22,12:00,1.021,1.647,1.105,1.976,1.353,0.542,0.997,0.920,���k��,4.8,��
2017/04/22,12:10,1.022,1.652,1.103,1.976,1.352,0.543,0.995,0.919,���k��,5.0,��
2017/04/22,12:20,1.020,1.649,1.104,1.973,1.352,0.543,0.995,0.920,���k��,4.4,��
2017/04/22,12:30,1.020,1.648,1.104,1.977,1.352,0.543,0.995,0.921,���k��,2.8,��
2017/04/22,12:40,1.020,1.649,1.103,1.976,1.352,0.544,0.995,0.920,���k��,2.6,��
2017/04/22,12:50,1.021,1.650,1.105,1.977,1.350,0.543,0.996,0.920,���k��,3.6,��
2017/04/22,13:00,1.020,1.648,1.104,1.978,1.351,0.543,0.998,0.918,�k��,1.7,��
2017/04/22,13:10,1.022,1.648,1.106,1.977,1.353,0.544,0.996,0.920,���k��,3.4,��
2017/04/22,13:20,1.023,1.654,1.105,1.976,1.353,0.545,0.997,0.923,�k��,2.6,��
2017/04/22,13:30,1.021,1.652,1.105,1.976,1.354,0.545,0.997,0.921,���k��,3.3,��
2017/04/22,13:40,1.022,1.651,1.106,1.981,1.354,0.544,0.994,0.920,���k��,3.5,��
2017/04/22,13:50,1.022,1.655,1.107,1.980,1.356,0.543,0.997,0.920,�k��,3.6,��
2017/04/22,14:00,1.026,1.654,1.105,1.981,1.355,0.542,0.996,0.921,���k��,3.6,��
2017/04/22,14:10,1.023,1.657,1.105,1.980,1.355,0.544,0.995,0.920,�k��,3.5,��
2017/04/22,14:20,1.023,1.651,1.106,1.979,1.355,0.546,0.996,0.922,�k��,4.0,��
2017/04/22,14:30,1.024,1.652,1.108,1.981,1.356,0.542,0.996,0.921,�k��,3.5,��
2017/04/22,14:40,1.023,1.653,1.106,1.980,1.354,0.542,0.997,0.918,�k��,3.3,��
2017/04/22,14:50,1.023,1.653,1.108,1.976,1.355,0.544,0.996,0.921,�k��,2.2,��
2017/04/22,15:00,1.023,1.651,1.105,1.979,1.355,0.545,0.997,0.919,�k,2.0,��
2017/04/22,15:10,1.022,1.654,1.105,1.978,1.353,0.545,0.997,0.919,�쓌,0.9,��
2017/04/22,15:20,1.023,1.655,1.107,1.979,1.352,0.546,0.996,0.918,���k��,0.8,��
2017/04/22,15:30,1.023,1.658,1.109,1.982,1.356,0.545,0.996,0.919,���쓌,2.0,��
2017/04/22,15:40,1.023,1.656,1.109,1.978,1.357,0.545,0.995,0.920,�쓌,1.1,��
2017/04/22,15:50,1.023,1.657,1.111,1.980,1.353,0.545,0.996,0.922,�쓌,1.5,��
2017/04/22,16:00,1.026,1.660,1.109,1.979,1.354,0.546,0.997,0.921,��쓌,3.1,��
2017/04/22,16:10,1.027,1.658,1.111,1.979,1.354,0.544,0.994,0.921,�쓌,1.7,��
2017/04/22,16:20,1.025,1.658,1.111,1.981,1.356,0.546,0.997,0.923,��쓌,3.0,��
2017/04/22,16:30,1.024,1.653,1.111,1.983,1.354,0.544,0.995,0.921,��쓌,2.9,��
2017/04/22,16:40,1.027,1.657,1.112,1.983,1.355,0.546,0.995,0.922,��,3.2,��
2017/04/22,16:50,1.025,1.656,1.111,1.980,1.357,0.544,0.997,0.923,�쓌,3.2,��
2017/04/22,17:00,1.022,1.658,1.109,1.980,1.354,0.545,0.997,0.923,��쓌,3.2,��
2017/04/22,17:10,1.022,1.655,1.108,1.979,1.352,0.546,0.996,0.924,��쓌,2.5,��
2017/04/22,17:20,1.026,1.656,1.108,1.980,1.355,0.547,0.997,0.925,��,2.3,��
2017/04/22,17:30,1.025,1.657,1.108,1.978,1.356,0.546,0.995,0.923,�쓌,2.0,��
2017/04/22,17:40,1.023,1.658,1.107,1.975,1.354,0.545,0.997,0.924,��,2.6,��
2017/04/22,17:50,1.025,1.656,1.107,1.977,1.355,0.546,0.996,0.923,��,2.3,��
2017/04/22,18:00,1.024,1.656,1.109,1.979,1.357,0.546,0.994,0.923,��쐼,2.0,��
2017/04/22,18:10,1.026,1.659,1.107,1.977,1.357,0.544,0.995,0.922,�쐼,0.9,��
2017/04/22,18:20,1.024,1.656,1.108,1.980,1.361,0.545,0.996,0.922,���쐼,2.5,��
2017/04/22,18:30,1.022,1.656,1.107,1.979,1.358,0.546,0.996,0.922,���k��,3.5,��
2017/04/22,18:40,1.024,1.655,1.108,1.979,1.358,0.545,0.994,0.924,�k��,3.5,��
2017/04/22,18:50,1.025,1.655,1.108,1.976,1.357,0.546,0.999,0.923,�k��,2.0,��
2017/04/22,19:00,1.025,1.655,1.109,1.978,1.358,0.544,0.998,0.923,�k��,3.1,��
2017/04/22,19:10,1.024,1.654,1.108,1.976,1.358,0.545,0.999,0.923,�k�k��,3.3,��
2017/04/22,19:20,1.027,1.655,1.108,1.977,1.357,0.545,0.996,0.922,�k�k��,5.7,��
2017/04/22,19:30,1.024,1.655,1.110,1.980,1.356,0.545,0.998,0.923,�k�k��,4.6,��
2017/04/22,19:40,1.023,1.657,1.107,1.979,1.359,0.546,0.998,0.923,�k�k��,4.4,��
2017/04/22,19:50,1.024,1.656,1.110,1.979,1.358,0.546,0.998,0.923,�k�k��,4.8,��
2017/04/22,20:00,1.023,1.654,1.109,1.979,1.355,0.546,0.998,0.922,�k�k��,4.6,��
2017/04/22,20:10,1.023,1.656,1.108,1.980,1.357,0.545,0.998,0.923,�k�k��,4.6,��
2017/04/22,20:20,1.024,1.656,1.109,1.978,1.357,0.545,0.998,0.922,�k�k��,3.9,��
2017/04/22,20:30,1.024,1.652,1.107,1.978,1.356,0.545,0.998,0.923,�k�k��,4.5,��
2017/04/22,20:40,1.024,1.651,1.108,1.977,1.357,0.544,0.998,0.922,�k��,4.6,��
2017/04/22,20:50,1.024,1.654,1.108,1.977,1.354,0.545,0.996,0.923,�k�k��,4.0,��
2017/04/22,21:00,1.023,1.656,1.107,1.977,1.353,0.544,0.996,0.921,�k��,4.7,��
2017/04/22,21:10,1.022,1.653,1.107,1.977,1.355,0.545,0.997,0.921,�k��,4.7,��
2017/04/22,21:20,1.024,1.653,1.105,1.979,1.355,0.542,0.996,0.920,�k��,5.6,��
2017/04/22,21:30,1.024,1.650,1.106,1.975,1.358,0.542,0.996,0.922,�k��,5.4,��
2017/04/22,21:40,1.024,1.655,1.108,1.978,1.357,0.544,0.996,0.921,�k��,5.8,��
2017/04/22,21:50,1.021,1.653,1.109,1.976,1.353,0.543,0.996,0.922,�k��,4.5,��
2017/04/22,22:00,1.022,1.652,1.108,1.978,1.353,0.543,0.998,0.920,�k��,3.4,��
2017/04/22,22:10,1.023,1.654,1.108,1.979,1.355,0.543,0.995,0.921,�k�k��,3.1,��
2017/04/22,22:20,1.023,1.655,1.108,1.976,1.356,0.544,0.997,0.920,�k�k��,3.8,��
2017/04/22,22:30,1.021,1.655,1.107,1.977,1.356,0.544,0.996,0.922,�k�k��,3.4,��
2017/04/22,22:40,1.022,1.651,1.109,1.979,1.356,0.544,0.997,0.921,�k�k��,3.2,��
2017/04/22,22:50,1.021,1.656,1.107,1.979,1.357,0.542,0.995,0.921,�k,3.5,��
2017/04/22,23:00,1.021,1.652,1.106,1.975,1.358,0.542,0.998,0.922,�k�k��,3.6,��
2017/04/22,23:10,1.020,1.654,1.107,1.975,1.355,0.543,0.996,0.922,�k�k��,2.2,��
2017/04/22,23:20,1.020,1.654,1.106,1.976,1.354,0.542,0.997,0.921,�k��,1.4,��
2017/04/22,23:30,1.020,1.651,1.107,1.976,1.354,0.544,0.995,0.921,�k��,0.8,��
2017/04/22,23:40,1.020,1.653,1.105,1.977,1.357,0.543,0.996,0.922,�k�k��,0.9,��
2017/04/22,23:50,1.023,1.649,1.105,1.974,1.354,0.544,0.996,0.923,�k��,1.9,��
